Temp
22 22 22 21 21 20 19 19 20 19 19 19 18 18 17 17 18 18 18 18 18 18 18 18 18 20 20 20 20 20 20 19 17 16 15 14 14 14 14 14 14 14 14
22 22 22 21 21 20 20 20 19 19 18 18 18 17 17 17 17 17 17 17 17 17 16 17 17 18 19 19 19 19 19 20 18 16 14 13 13 13 13 13 13 13 13
22 22 22 21 20 20 20 20 19 18 18 17 17 17 17 16 16 16 16 16 16 16 16 15 16 16 17 17 18 18 18 18 17 16 14 13 12 12 12 12 11 12 11
22 22 21 21 20 20 20 19 19 18 18 17 17 17 17 17 17 17 17 16 16 15 15 15 15 16 16 16 16 17 17 17 16 15 14 13 13 12 12 11 10 11 10
22 22 21 21 20 20 19 19 18 18 18 17 17 17 17 17 17 16 16 16 16 15 15 15 15 15 15 16 17 17 17 16 15 14 14 13 13 12 12 11 10 10 10
23 22 21 21 20 20 19 19 18 18 17 17 17 17 17 17 17 17 16 15 15 15 15 15 15 15 15 15 16 16 16 16 15 14 14 13 13 12 12 11 10 10 10
23 22 21 20 20 19 19 18 18 17 17 17 16 16 17 17 17 17 16 16 15 15 15 15 15 15 14 15 15 15 15 15 15 15 14 13 13 13 12 11 11 12 10
23 23 20 20 19 18 18 18 18 18 17 16 16 16 16 16 16 17 17 16 15 15 15 15 15 15 15 15 15 15 14 14 14 14 14 13 13 13 13 13 12 11 11
23 23 21 18 19 18 18 18 17 17 17 16 16 16 16 16 16 16 16 15 15 15 14 14 14 15 14 14 15 14 14 13 13 13 13 13 14 14 13 13 12 11 10
18 19 19 19 18 18 18 17 17 17 16 16 15 15 15 15 16 16 16 16 15 14 14 14 14 14 14 14 14 14 14 13 13 13 13 13 14 13 13 13 13 12 12
17 17 18 19 18 18 18 17 17 17 16 15 15 14 14 14 15 15 15 16 15 15 14 14 14 14 14 14 13 13 13 13 13 13 13 13 13 13 13 13 13 12 12
15 16 17 18 17 17 17 16 16 16 15 14 14 13 13 13 14 15 15 15 15 15 14 14 13 13 13 13 14 14 15 15 14 14 14 13 13 13 13 13 12 13 13
14 14 15 16 17 17 16 16 15 15 14 13 13 12 12 12 12 13 14 14 14 14 14 14 13 13 14 14 14 14 14 14 14 14 14 13 13 13 13 13 12 12 12
13 13 14 15 15 15 15 15 14 14 13 12 12 11 11 11 11 12 12 13 12 13 13 13 13 14 14 14 14 14 14 14 14 13 13 13 13 13 13 13 13 12 12
12 12 13 13 13 13 13 12 12 12 13 12 11 11 11 11 11 12 12 12 13 13 13 13 13 13 14 14 13 13 13 13 13 13 13 13 13 13 13 13 12 12 11
12 12 12 12 11 11 11 10 11 11 11 11 11 11 11 11 11 11 12 12 12 12 13 13 13 14 14 14 14 13 13 13 13 13 12 12 12 12 12 12 12 12 12
13 12 11 11 11 11 11 11 10 10 10 11 11 11 11 11 11 11 11 12 12 13 13 13 13 14 13 13 13 13 13 13 12 12 12 12 12 12 12 12 12 12 12
13 13 13 12 12 12 13 13 12 12 11 11 11 11 11 11 11 11 12 12 13 13 13 13 13 13 14 14 14 13 12 12 12 12 11 12 12 11 12 12 12 11 12
13 13 13 13 13 14 13 13 13 13 13 13 12 12 12 12 12 12 12 13 14 14 14 14 15 14 14 14 14 13 13 12 12 11 11 11 11 11 11 11 11 11 11
15 15 15 14 14 13 14 14 13 13 14 14 14 13 13 12 13 13 14 14 14 14 14 15 15 14 14 14 13 13 13 12 12 11 11 11 11 11 11 11 11 11 11
16 16 16 16 15 15 15 15 15 15 15 15 15 15 15 15 15 15 15 15 15 15 14 14 15 14 14 13 13 13 12 12 12 11 11 11 11 11 11 11 11 11 11
17 18 18 18 18 17 16 16 16 15 15 15 15 15 14 14 14 14 15 15 15 15 15 14 14 15 14 14 13 13 13 13 12 12 12 12 11 12 11 11 11 11 11
18 18 18 17 18 18 18 18 17 16 17 17 17 16 15 15 15 15 15 15 15 15 15 14 13 13 13 12 12 13 12 12 12 12 12 12 12 12 12 11 11 11 11
19 18 18 18 18 18 18 17 18 17 17 17 17 16 15 15 14 14 14 14 14 14 14 13 13 12 12 11 11 11 11 11 11 11 11 12 11 10 11 11 11 11 10
18 17 17 17 17 17 18 18 17 17 17 16 15 14 13 13 13 13 13 12 12 12 11 11 10 10 10 10 10 9 9 10 10 10 10 10 10 11 11 9 10 11 10
17 17 17 17 17 16 17 17 15 15 14 13 12 12 11 11 11 11 10 10 10 9 8 8 8 7 7 7 7 7 8 8 8 7 8 8 8 8 8 9 8 8 9
Height
814 816 816 815 817 818 817 818 818 817 816 816 812 811 809 806 805 803 800 799 799 799 798 798 798 800 802 805 806 807 810 812 814 820 823 825 826 827 827 827 826 825 823
813 815 814 815 816 818 818 819 822 820 818 817 814 812 811 810 808 806 804 803 803 801 801 801 801 802 802 804 806 807 808 809 811 817 822 824 826 828 828 828 827 827 826
811 812 814 815 818 819 821 822 823 821 818 820 817 815 814 813 811 810 808 807 806 806 805 805 805 805 806 807 808 808 809 810 810 814 820 824 827 829 829 829 829 828 828
809 812 813 814 817 819 821 822 822 822 820 822 820 819 818 816 816 814 813 811 810 810 809 809 810 809 810 810 811 811 812 812 813 817 820 824 826 830 829 830 831 830 830
809 811 814 816 818 819 820 821 820 822 823 824 822 822 821 819 819 819 817 816 815 814 813 813 813 813 813 813 814 815 815 815 817 819 822 824 827 829 830 831 832 833 834
809 810 813 814 817 818 820 822 821 823 824 824 824 824 823 822 822 821 820 819 819 819 819 819 818 818 818 818 818 818 818 819 820 822 824 825 827 828 830 831 833 834 836
807 808 809 813 813 815 818 821 823 823 825 824 825 826 824 825 825 824 822 821 821 823 823 823 822 822 823 823 823 823 823 824 825 825 826 827 828 829 830 832 833 834 836
807 806 807 807 812 815 817 820 820 822 824 825 826 827 827 827 827 826 825 824 824 824 824 825 825 826 827 827 827 826 826 827 828 829 829 830 830 831 832 833 834 836 838
805 804 803 811 810 812 815 816 820 820 824 825 827 828 828 828 828 828 827 826 826 827 827 827 827 828 829 829 829 830 830 830 832 832 832 833 833 832 833 833 835 836 838
804 805 804 806 807 810 813 815 819 821 822 825 827 828 829 830 829 829 829 828 829 830 829 829 830 830 831 831 831 832 832 832 833 835 835 835 834 833 834 833 833 834 834
806 806 803 800 803 808 811 815 818 819 822 824 826 828 829 830 830 829 829 830 830 832 831 831 831 832 832 832 833 833 833 834 834 835 835 836 836 835 835 834 832 831 833
804 806 803 801 804 806 811 814 817 819 822 825 826 828 830 830 831 830 829 830 832 833 833 833 833 834 835 835 835 835 834 833 833 834 835 837 837 836 836 836 834 834 833
803 806 806 803 805 808 812 814 817 820 822 825 828 829 831 833 831 830 831 833 835 835 835 835 837 837 837 837 837 837 837 835 835 836 837 837 837 837 837 837 836 836 836
805 807 805 806 808 810 812 815 817 820 822 826 828 829 832 832 833 832 833 834 836 835 836 837 838 838 838 839 839 840 839 839 839 839 839 838 837 838 838 838 837 836 836
805 805 805 807 810 813 815 818 820 821 824 826 828 830 831 833 833 834 834 835 835 837 838 839 840 840 840 840 841 841 840 840 840 840 839 838 838 838 837 837 836 836 835
807 807 808 810 813 815 816 819 821 823 825 827 828 830 832 833 834 834 835 835 836 838 839 840 839 839 839 839 840 840 841 841 841 840 839 838 838 837 837 836 835 834 834
808 809 811 813 814 816 819 820 821 826 827 828 829 831 832 833 834 834 835 835 836 838 839 840 839 839 839 839 839 839 840 840 840 839 839 839 838 837 836 835 834 834 832
811 812 813 814 816 817 819 822 823 825 826 828 829 831 832 833 834 834 834 835 836 838 839 839 839 839 839 839 839 839 839 840 839 838 838 838 837 836 835 835 834 833 833
813 814 815 816 817 818 821 824 825 827 828 829 830 831 832 833 834 834 834 835 836 836 837 837 837 839 839 839 838 839 839 839 838 838 837 836 835 835 834 834 833 833 832
813 813 814 817 819 821 822 824 826 827 828 828 829 831 832 833 833 833 834 834 835 836 836 836 836 837 838 838 837 838 838 837 837 836 835 834 834 834 833 832 831 830 830
812 814 815 817 819 820 821 822 824 825 826 827 829 830 831 832 833 833 834 835 835 835 836 836 836 836 836 836 836 836 835 835 834 834 833 833 832 831 830 829 828 827 827
813 815 816 817 817 819 821 823 824 825 826 827 828 830 832 832 833 833 833 833 833 833 834 835 835 834 834 834 834 833 832 831 831 831 831 830 829 827 825 825 825 824 823
813 814 816 817 817 819 820 821 823 823 824 824 825 828 829 830 831 831 831 832 832 831 832 832 834 834 834 833 833 831 830 829 828 828 827 826 824 823 822 821 821 820 819
812 813 814 817 817 819 819 820 821 822 822 822 823 824 826 829 831 831 830 831 831 830 830 831 832 832 831 830 830 829 828 827 825 823 821 819 819 820 818 816 816 815 814
809 812 815 817 818 819 819 819 821 821 822 822 823 825 828 829 829 828 827 828 829 830 830 830 830 830 829 829 828 826 824 822 820 819 818 815 813 811 812 812 811 809 808
812 814 816 817 819 819 818 818 819 819 820 822 824 826 828 830 829 829 830 830 830 831 831 831 830 830 829 827 826 824 821 819 818 815 812 809 807 806 806 804 804 805 803
Wind_Speed
16 15 14 14 12 11 14 12 9 9 11 10 11 14 14 15 15 16 17 18 18 16 14 10 8 8 10 9 9 11 13 14 7 8 17 12 10 8 8 8 9 11 12
17 16 14 13 15 12 13 10 6 11 12 11 12 16 18 17 17 20 20 19 19 17 16 18 19 17 14 10 9 9 7 7 11 14 14 10 14 12 12 13 13 12 12
19 19 18 16 16 15 13 10 8 11 13 10 14 18 18 19 18 19 20 21 21 20 20 21 17 15 15 14 12 10 8 9 17 16 11 15 16 14 14 12 11 10 11
23 25 21 20 18 17 15 11 9 9 11 10 13 16 17 19 21 21 22 23 24 23 22 20 19 18 16 14 14 12 11 14 17 18 16 13 11 11 10 12 11 11 12
25 25 22 20 19 17 16 14 12 11 10 9 13 13 13 15 15 16 20 22 24 25 24 25 22 17 14 12 12 10 10 14 15 16 12 10 10 12 8 7 13 13 11
24 25 23 22 21 18 16 14 12 12 9 9 12 13 13 13 11 11 12 14 17 18 18 18 18 17 17 16 13 12 12 11 12 12 10 11 6 7 9 15 16 7 3
23 26 27 27 26 23 20 18 13 11 10 10 12 12 14 13 11 12 13 16 15 14 17 16 19 17 14 13 13 14 14 12 10 8 11 7 6 5 9 12 7 3 4
25 27 29 29 25 24 22 19 16 13 9 10 11 10 11 11 10 8 8 11 13 13 13 14 13 15 16 15 16 17 16 14 13 13 12 12 9 5 4 4 4 9 11
18 14 16 23 27 27 25 21 20 17 12 10 9 9 8 9 8 8 6 9 12 12 11 11 12 9 10 10 12 15 16 17 15 14 14 12 9 7 5 6 12 13 4
5 7 13 22 27 28 24 22 21 18 16 14 10 6 5 5 4 8 6 9 11 10 10 9 8 9 6 3 6 7 9 9 9 9 7 9 11 8 5 2 5 14 5
7 6 5 14 23 26 24 22 22 20 19 16 11 7 5 6 8 8 8 5 8 8 8 7 7 6 6 7 5 6 5 4 3 3 5 7 8 11 10 5 6 1 10
7 6 7 9 21 26 24 23 21 21 20 15 11 8 7 7 7 8 5 10 8 5 6 8 8 8 10 11 10 11 6 1 3 8 10 6 3 6 7 8 9 9 8
13 11 12 14 17 21 23 23 23 21 18 14 10 10 8 7 7 9 10 11 7 6 9 11 9 9 10 10 11 8 11 12 12 10 7 4 4 4 2 2 1 2 3
19 17 16 17 17 17 19 19 21 19 16 12 10 10 8 8 8 9 9 8 8 9 9 8 7 7 6 5 5 7 8 10 10 9 6 3 1 2 2 3 3 4 6
18 17 18 18 18 18 18 15 15 13 9 10 9 10 10 8 7 7 7 7 7 7 6 4 3 2 1 1 1 3 5 4 4 5 6 6 5 3 2 3 3 3 4
19 18 18 19 20 20 20 18 14 11 10 9 9 7 7 7 6 5 4 4 5 3 2 5 7 3 4 2 5 3 4 4 3 2 3 3 3 5 5 4 5 5 3
19 19 20 20 19 20 18 18 18 13 10 8 6 6 5 5 5 4 3 3 3 2 1 4 3 8 10 9 8 6 4 0 1 1 2 3 4 5 6 10 8 6 5
18 20 21 21 20 19 17 16 14 14 12 9 8 6 6 5 4 4 3 4 4 3 1 4 2 7 9 5 1 1 2 0 4 5 4 5 5 5 6 7 9 6 8
18 18 17 17 17 17 16 15 13 12 11 10 8 7 6 5 4 3 4 6 3 1 5 4 5 8 8 5 5 5 4 6 6 5 7 9 10 7 7 8 7 7 8
13 15 15 16 17 16 15 14 12 11 11 10 9 8 9 7 5 5 7 7 4 2 3 3 3 7 8 8 8 8 7 8 8 9 8 10 10 9 10 11 11 10 9
13 14 12 13 19 20 20 19 16 15 13 12 10 8 7 8 7 5 4 6 6 7 3 8 6 5 3 5 9 7 9 10 10 11 10 12 12 13 15 14 14 14 14
13 15 9 8 13 20 19 17 19 18 17 17 15 13 9 9 10 9 9 9 12 15 15 11 10 7 4 5 7 7 9 10 11 12 12 12 14 16 14 15 14 13 13
10 9 6 15 18 14 10 5 6 8 9 12 16 18 17 14 11 11 10 10 10 11 14 15 13 6 3 5 7 10 11 12 13 15 16 17 17 16 13 14 15 14 13
8 10 17 14 12 9 5 4 4 2 4 6 7 14 19 16 11 15 14 11 2 5 6 8 6 3 1 1 1 2 5 8 9 12 18 21 21 21 21 20 19 18 18
18 19 15 12 10 9 7 4 3 3 1 5 4 4 7 7 12 14 15 15 13 12 10 7 4 3 2 5 8 10 14 16 18 19 17 15 15 17 23 23 24 22 19
17 16 14 10 8 8 4 3 3 9 12 18 23 22 21 21 20 19 17 15 14 12 10 9 8 8 8 10 12 15 16 17 18 18 19 19 21 20 21 25 25 28 27
Wind_Direction
164 159 145 129 132 109 88 91 81 74 78 72 61 60 66 71 72 77 78 80 81 83 82 83 84 129 156 173 179 196 198 195 133 113 139 139 133 133 120 116 110 96 82
173 169 149 140 141 120 102 99 97 98 83 75 75 74 72 76 84 80 80 84 82 81 80 83 84 93 100 122 155 148 152 175 150 133 135 131 129 133 128 117 99 89 77
188 171 158 148 145 135 129 123 112 107 92 82 82 81 78 72 76 79 80 82 81 80 80 78 79 88 90 91 93 97 104 121 145 145 134 145 137 140 130 122 111 99 86
177 169 164 161 160 151 139 134 126 114 104 100 98 95 91 86 81 79 82 83 82 80 80 82 82 81 84 89 89 88 101 110 134 134 130 138 140 146 139 125 102 94 91
180 177 172 167 160 153 144 140 129 128 122 118 116 104 98 98 95 91 87 85 84 83 80 78 74 77 80 84 89 90 102 109 121 129 125 134 136 154 173 157 124 112 93
187 186 175 169 169 164 156 150 144 136 135 129 125 116 107 102 100 107 106 102 92 84 85 78 73 73 76 75 80 86 89 105 112 120 126 130 135 142 155 153 142 130 117
196 193 179 181 178 168 161 157 149 143 136 128 133 124 110 108 109 110 103 100 118 96 90 83 76 76 84 87 88 88 92 91 94 108 114 117 126 150 160 166 192 194 150
206 198 190 189 176 169 164 158 150 153 147 138 139 130 118 105 125 108 93 100 105 97 90 82 82 83 81 81 87 88 92 92 93 96 96 91 92 108 159 172 184 136 144
196 197 218 192 185 176 170 165 163 158 151 137 140 137 128 110 133 129 102 109 106 95 93 91 77 94 92 84 84 87 88 90 93 98 97 85 68 63 130 136 148 146 164
246 190 203 199 194 181 178 170 166 161 157 151 139 144 133 108 96 176 131 115 106 95 96 97 91 83 103 107 91 92 100 89 95 102 105 77 64 70 102 185 231 205 176
200 207 168 199 198 187 176 174 167 164 160 153 146 137 126 110 93 138 161 151 131 109 95 94 89 90 96 90 93 97 93 82 95 100 127 113 83 75 69 65 63 206 202
159 153 153 145 176 179 176 166 167 165 160 152 144 137 124 121 106 98 117 196 163 120 100 99 91 89 92 83 75 64 37 268 209 143 135 146 116 90 69 67 76 74 66
146 138 132 133 147 159 164 164 164 169 161 149 147 137 129 117 105 100 104 132 148 123 107 104 97 98 99 78 61 68 72 88 106 117 124 118 98 78 77 26 351 24 70
145 138 126 123 126 138 151 161 163 163 152 148 150 144 137 123 112 106 116 130 129 125 123 122 111 112 104 87 89 68 70 84 82 78 60 50 136 131 77 2 5 278 252
139 130 124 123 123 123 123 128 138 137 150 157 154 153 147 141 127 123 116 114 123 119 111 103 46 1 275 239 359 113 102 104 80 67 51 49 56 56 22 349 351 349 265
136 135 135 134 136 132 128 117 113 117 127 134 138 149 157 156 154 154 145 130 130 141 120 5 347 90 98 168 232 202 141 91 56 26 15 13 27 2 359 321 334 350 339
141 141 138 136 132 130 131 131 125 121 124 129 137 150 155 157 155 164 177 181 180 171 145 13 92 146 133 126 122 141 161 176 299 258 305 326 340 342 356 2 356 332 320
145 143 139 136 133 131 132 131 130 136 140 142 138 137 136 138 146 154 150 144 146 148 347 351 14 190 162 160 198 236 156 3 314 266 278 288 295 330 337 344 358 315 324
152 152 149 144 139 139 142 139 132 133 143 138 149 156 163 168 179 183 167 157 148 20 352 315 245 226 221 234 241 236 269 318 315 295 297 312 288 298 303 319 323 333 321
178 171 167 168 169 171 170 169 169 171 169 168 169 160 172 175 184 183 184 198 210 268 16 121 200 219 234 255 252 244 278 294 293 290 307 302 303 286 298 284 293 299 308
207 215 216 200 206 207 201 200 201 201 204 207 199 182 183 189 181 191 218 246 252 243 259 176 164 181 229 244 249 262 282 278 277 288 294 295 293 292 292 287 280 282 290
170 161 160 199 192 184 196 210 215 219 227 232 232 220 208 225 232 242 264 283 254 254 263 251 241 272 280 304 294 273 283 288 283 281 294 302 302 301 284 275 283 287 293
175 187 200 159 158 154 149 130 133 169 206 220 240 231 216 226 233 247 263 282 300 279 258 251 246 228 265 300 296 297 291 286 285 290 285 283 280 279 271 263 271 275 288
207 199 169 154 156 155 132 94 87 91 118 150 197 227 220 231 256 285 278 279 119 133 161 183 172 158 330 291 237 281 287 295 312 307 287 279 282 283 272 266 270 275 292
138 142 138 131 128 119 102 95 209 287 317 173 172 154 159 157 120 115 118 131 131 127 123 129 117 89 22 344 327 322 309 297 288 285 286 290 287 283 292 281 279 275 280
122 116 112 113 99 77 104 153 100 120 119 124 126 122 120 116 112 111 111 110 108 103 95 80 60 36 14 360 347 331 319 316 312 312 314 308 297 288 283 277 279 283 284